Location: Saint-Palais-sur-Mer
(45.6429°N, 1.0859°W)
Time: 21:05:22
(UTC+02:00)

TIGRISAT - Pass Details

Date: 03 May 2024
Orbit: 594 x 672 km, 97.7° (Epoch: 26 May)

Event Time Altitude Azimuth Distance (km) Brightness Sun altitude
Rises 05:32:45 0° 153° (SSE) 2,880 ? -12.2°
Reaches altitude 10° 05:34:59 10° 148° (SSE) 1,968 ? -11.9°
Maximum altitude 05:39:07 51° 73° (ENE) 762 ? -11.3°
Drops below altitude 10° 05:43:14 10° 357° (N) 1,950 ? -10.7°
Sets 05:45:26 0° 352° (N) 2,852 ? -10.4°
